Погода в Саранском

Россия / Калининградская область     54°49′51″N   21°14′23″E
темп.,
°C
ветер,
м/с
пор.,
м/с
влажн.,
%
обл.,
%
осадки,
мм/ч
давл.,
гПа
погр.,
м
13 мая, чт
чт1323:00+13вюв311780 0.0 1010275
02:00+10вюв38900 0.0 1009142
05:00+9вюв23923 0.0 100852
08:00+15в237059 0.0 1006318
11:00+17всв3461100 0.0 1005887
14:00+17всв346362 0.0 10031271
17:00+15всв45825 1.3 1002716
20:00+11всв48920 1.7 1002425
14 мая, пт
пт1423:00+8св389984 0.0 1002298
02:00+10всв3695100 0.0 1001470
05:00+9св3695100 0.0 1001388
08:00+10всв3491100 0.1 1001360
11:00+12всв2279100 0.1 1002814
14:00+13ссз1176100 0.4 1002791
17:00+13ссз3370100 0.1 1003602
20:00+9сз2589100 0.1 1004172
15 мая, сб
сб1523:00+7сз2297100 0.0 100439
02:00+6з2296100 0.0 100534
05:00+6зюз229586 0.0 100660
08:00+11юз35757 0.0 1006450
11:00+16зюз346279 0.0 10071199
14:00+17зюз236254 0.5 10071239
17:00+16юз237394 0.8 1006728
20:00+12зюз22915 1.3 100742
16 мая, вс
вс1623:00+9ююз229444 0.0 100712
02:00+9ю2395100 0.0 100760
05:00+8ююв259664 0.0 1007100
08:00+12ююв378875 0.0 1007322
11:00+12вюв3996100 2.1 1007378
14:00+15ю498971 4.4 1005593
17:00+17ююз248786 3.3 1004606
20:00+13зюз0195100 6.0 100415
17 мая, пн
пн1723:00+11с129998 0.9 100436
02:00+11сз3699100 0.9 1003213
05:00+9з3799100 0.4 1004328
08:00+10з259892 1.1 1006302
11:00+16сз136433 0.0 10071116
14:00+17с2161100 0.1 1006986
17:00+17в23625 0.1 1006931
20:00+13всв22855 0.1 100621